Location: Alpi Bernesi
(46.4167°N, 7.7500°E)
Time: 13:39:47
(UTC+00:00)

Daily predictions for brighter satellites

Satellite Brightness Start Highest point End
(mag) Time Altitude Azimuth Time Altitude Azimuth Time Altitude Azimuth
In-Cosmos 22 4.4 16:37:15 10° SSW 16:42:46 78° WNW 16:48:11 10° N
Cosmos 1943 3.6 16:39:07 10° NNW 16:44:31 42° NE 16:49:51 10° SE
ATLAS 2AS CENTAUR R/B 3.2 16:43:20 10° SW 16:51:19 87° NW 16:59:11 10° NE
Cosmos 1908 3.2 16:47:50 10° N 16:51:42 89° W 16:55:35 10° S
Lacrosse 5 3.1 16:49:53 10° NW 16:54:10 27° N 16:58:27 10° ENE
Cosmos 1634 Rocket 4.0 16:54:34 10° N 17:00:46 65° ENE 17:07:00 10° SSE
Cosmos 2227 4.5 16:55:57 10° S 17:01:21 50° ESE 17:06:49 10° NE
Okean-O 3.8 16:59:56 10° ESE 17:03:15 21° ENE 17:06:36 10° NNE
AQUARIUS 4.3 16:59:57 10° S 17:04:27 81° WSW 17:08:59 10° NNW
COSMO-SKYMED 1 3.2 17:03:58 10° NNE 17:07:59 35° E 17:11:56 10° SSE
Cosmos 1536 Rocket 3.8 17:04:18 10° SSW 17:08:39 75° W 17:13:05 10° N
Cosmos 2227 Rocket 3.9 17:04:42 10° WSW 17:09:36 29° NW 17:14:33 10° N
Landsat 5 4.1 17:06:10 10° N 17:10:05 54° WNW 17:13:53 10° SSW
Cosmos 1674 3.7 17:07:12 10° SSW 17:10:55 48° WNW 17:14:40 10° N
Okean O Rocket 1.8 17:07:02 10° S 17:11:28 79° WSW 17:15:57 10° NNW
RESURS DK-1 2.3 17:07:38 10° SSW 17:11:46 76° ESE 17:15:55 10° NNE
ERS-2 3.3 17:12:03 12° NE 17:14:33 23° E 17:17:31 10° SSE
CZ-4C R/B 4.4 17:13:22 10° N 17:16:16 34° WNW 17:19:10 10° SW
CZ-4B R/B 1.7 17:13:28 10° NNE 17:16:47 45° E 17:20:00 10° S
CZ-4C R/B 2.7 17:17:22 10° WSW 17:22:18 54° NW 17:28:17 10° NE
CZ-4B R/B 4.0 17:18:23 10° S 17:23:48 58° WSW 17:29:21 10° NNW
USA 234 3.9 17:19:06 14° ENE 17:24:06 38° N 17:30:03 10° NW
Cosmos 1844 Rocket 4.1 17:20:44 10° SE 17:24:19 17° E 17:25:29 16° E
CZ-2D R/B 3.2 17:24:23 10° SSE 17:28:10 58° ENE 17:31:58 10° N
TIMED 4.4 17:23:47 10° NNW 17:28:11 75° ENE 17:32:32 10° SSE
Cosmos 1354 Rocket 4.0 17:24:36 10° SSW 17:29:56 85° ESE 17:35:18 10° NNE
Meteor 2-5 Rocket 3.6 17:24:23 10° S 17:29:59 85° E 17:35:34 10° NNE
Cosmos 783 Rocket 4.4 17:25:05 10° NNW 17:30:21 80° ENE 17:35:35 10° SSE
SL-14 R/B 3.2 17:26:40 10° S 17:30:30 84° W 17:34:25 10° N
Cosmos 1603 3.8 17:26:57 10° NNW 17:32:41 83° WSW 17:38:25 10° SSE
IRS-1C Rocket 4.1 17:27:36 10° SSE 17:32:46 61° ENE 17:37:57 10° N
Cosmos 2297 Rocket 4.4 17:31:08 10° W 17:34:58 18° NW 17:38:47 10° N
COSMOS 2455 3.5 17:31:42 10° S 17:37:06 36° ESE 17:40:26 21° ENE
Cosmos 2142 Rocket 4.4 17:31:09 10° N 17:37:22 85° E 17:43:30 10° S
ATLAS 3B R/B 3.3 17:32:54 10° NW 17:39:47 64° WSW 17:46:55 10° SSE
YAOGAN 1 2.8 17:39:33 10° SE 17:43:42 46° ENE 17:47:51 10° N
Cosmos 1606 Rocket 3.5 17:39:45 10° N 17:44:08 88° W 17:48:32 10° S
Cosmos 1892 Rocket 3.6 17:40:06 10° S 17:44:20 53° E 17:48:30 10° NNE
H-2A R/B 3.6 17:42:06 10° N 17:46:15 37° WNW 17:50:19 10° SW
CZ-2C R/B 3.0 17:44:00 10° SSE 17:49:11 85° ENE 17:54:44 10° NNW
Cosmos 1626 3.7 17:45:56 10° SW 17:49:21 35° WNW 17:52:47 10° N
CSL-04 Rocket 4.1 17:44:27 10° SE 17:49:23 38° ENE 17:54:24 10° N
Cosmos 1939 Rocket 3.8 17:45:49 10° S 17:49:52 53° W 17:53:55 10° NNW
Nadezhda 4 Rocket 4.2 17:45:01 10° SSE 17:50:55 45° E 17:56:48 10° NNE
CZ-4 R/B 4.4 17:47:11 10° SSE 17:51:18 87° WSW 17:55:29 10° NNW
CZ-4 R/B 1.3 17:51:45 10° SSE 17:55:53 72° ENE 17:59:57 10° N
SKYMED 2 3.7 17:51:45 10° N 17:56:07 75° WNW 18:00:26 10° SSW
MOS 1 Rocket 2.9 17:53:24 10° NNE 17:57:48 84° ESE 18:02:04 10° SSW
ATLAS 5 CENTAUR R/B 1.8 17:54:37 10° SW 17:58:36 63° NW 18:01:05 25° NNE
BREEZE-M DEB (TANK) 4.2 17:58:43 10° W 18:01:21 24° SW 18:02:38 15° S
CREW DRAGON DEMO-1 DEB 4.2 18:01:03 10° WNW 18:03:09 26° NNW 18:03:09 26° NNW
Meteor 2-10 Rocket 3.5 17:59:09 10° N 18:04:47 78° ENE 18:10:09 10° SSE
Cosmos 2058 Rocket 3.0 18:04:18 10° N 18:08:48 83° E 18:13:19 10° S
Cosmos 2228 4.3 18:04:57 10° NNW 18:08:59 42° W 18:13:00 10° SSW
SJ 16-02 2.5 18:06:12 10° SSE 18:08:46 27° SE 18:08:46 27° SE
H-2A R/B 1.8 18:05:29 10° SSE 18:10:25 78° ENE 18:15:30 10° N
Cosmos 2263 Rocket 3.0 18:06:25 10° SW 18:11:55 50° WNW 18:17:04 12° NNE
Okean 1-7 Rocket 3.5 18:09:15 10° S 18:13:45 73° E 18:16:13 27° NNE
SAR-Lupe-4 3.5 18:12:53 50° NNE 18:13:45 87° W 18:17:19 10° SSW
EXPRESS MD2 3.9 18:07:48 10° WNW 18:15:34 87° SSW 18:16:50 48° ESE
Meteor 1-24 Rocket 4.4 18:11:16 10° SSW 18:16:30 50° WNW 18:21:40 10° N
OPS 8737 4.5 18:17:13 10° NW 18:20:11 77° NNW 18:20:11 77° NNW
Cosmos 1689 Rocket 3.7 18:22:29 29° SSW 18:22:29 29° SSW 18:24:04 10° SSW
Cosmos 923 Rocket 4.3 18:17:33 10° NNW 18:22:20 45° NE 18:22:20 45° NE
SAR-Lupe-1 4.4 18:24:36 53° NNW 18:25:12 64° WNW 18:28:44 10° SSW
Cosmos 1818 3.9 18:20:29 10° S 18:25:19 44° SE 18:25:19 44° SE
Helios 1A Rocket 3.1 18:26:02 10° S 18:30:08 70° WSW 18:34:18 10° NNW
Meteor 2-13 Rocket 4.3 18:24:29 10° S 18:30:35 84° E 18:36:45 10° N
ISS -1.1 18:27:55 10° SSW 18:28:24 13° S 18:28:24 13° S
Cosmos 1680 Rocket 4.5 18:26:16 10° N 18:29:33 32° NNE 18:29:33 32° NNE
USA 267 3.4 18:29:51 44° E 18:31:31 55° SE 18:37:53 10° SSW
SJ-11-01 4.5 18:27:52 10° S 18:32:34 71° WSW 18:37:16 10° NNW
ARGOS 3.0 18:27:45 10° SSE 18:33:06 88° ENE 18:38:31 10° NNW
CSL-04 Debris 4.1 18:29:02 10° SSE 18:34:26 88° WSW 18:39:52 10° NNW
Cosmos 1844 4.0 18:30:25 10° S 18:35:08 48° SE 18:35:08 48° SE
Meteor 1-21 Rocket 4.0 18:31:23 10° S 18:36:52 73° E 18:38:13 51° NNE
Lacrosse 5 2.0 18:32:59 10° NW 18:37:41 57° NNE 18:37:41 57° NNE
Okean-O 3.7 18:35:11 10° S 18:39:26 45° W 18:43:43 10° NNW
Cosmos 2082 Rocket 4.4 18:37:00 10° N 18:37:45 12° N 18:37:45 12° N
USA 281 4.4 18:42:04 25° NNE 18:42:04 25° NNE 18:45:43 10° N
CZ-2C R/B 2.8 18:43:09 57° SE 18:43:09 57° SE 18:47:55 10° S
ATLAS 2AS CENTAUR R/B 4.2 18:36:19 10° W 18:43:20 33° NNW 18:48:02 18° NNE
ERS-2 4.1 18:46:37 20° NNW 18:48:03 26° WNW 18:51:09 10° SW
Cosmos 158 Rocket 4.0 18:46:38 10° NNW 18:51:25 72° N 18:51:25 72° N
Cosmos 2195 Rocket 4.3 18:47:14 10° S 18:53:31 75° E 18:54:34 61° NE
USA 234 3.1 19:06:28 69° NE 19:06:32 70° NNE 19:13:03 10° NW
Cosmos 1844 Rocket 2.8 19:01:51 10° SSW 19:07:13 75° W 19:07:13 75° W
CZ-4C R/B 4.2 19:08:09 10° WNW 19:12:21 21° NNW 19:13:42 19° N
Cosmos 1092 Rocket 4.1 19:09:11 10° SSW 19:15:23 71° W 19:17:18 45° N
Iridium 4 Rocket 4.2 19:10:48 10° N 19:23:28 - S 19:15:35 56° NW
COSMOS 2455 3.6 19:17:06 10° WSW 19:22:54 47° NW 19:23:37 45° NNW
Cosmos 2344 4.2 19:15:56 10° NW 19:25:05 70° NE 19:26:41 63° E
ATLAS 5 CENTAUR R/B 4.3 19:41:28 10° WNW 19:42:39 14° NW 19:42:39 14° NW
SJ 16-02 4.2 19:45:02 10° WSW 19:45:49 14° WSW 19:45:49 14° WSW
NOSS 3-1 (C) 4.4 19:50:58 10° NW 19:56:35 57° NW 19:56:35 57° NW
USA 267 4.5 20:17:12 36° W 20:17:12 36° W 20:20:57 10° WSW
